Volver al catálogo

ONEWEB-0619

ActivoComunicacionesPO
NORAD 55160·PAYLOAD·🇬🇧 United Kingdom

Lanzado Jan 10, 2023 desde Cape Canaveral Space Force Station

Loading…

Próximos Pases (próximas 24 horas)

TLE

ActualizadoSource: CelesTrak SupGP

Época: Sep 14, 2026, 10:10 UTC

1 55160C 23004W   26257.42377732 -.00002357  00000+0 -60791-2 0  2573
2 55160  87.9215 348.1353 0002280 105.3453   7.0749 13.17652792    12

Sigue ONEWEB-0619 en tiempo real con AllMySat

Download on the App Store